Weather History for KHLG - April, 2013

Change the Weather History Date:

Wednesday, April 3, 2013

  Actual Average Record
Temperature  
Mean Temperature 34 °F 47 °F  
Max Temperature 42 °F 57 °F 79 °F (2007)
Min Temperature 25 °F 37 °F 25 °F (2013)
Degree Days  
Heating Degree Days 31 18  
Month to date heating degree days 90 56  
Since 1 July heating degree days 4988 4996  
Cooling Degree Days 0    
Month to date cooling degree days 0  
Year to date cooling degree days 0  
Moisture  
Dew Point 10 °F    
Average Humidity 43    
Maximum Humidity 62    
Minimum Humidity 24    
Precipitation  
Precipitation 0.00 in 0.10 in - ()
Month to date precipitation 0.01 0.32  
Sea Level Pressure  
Sea Level Pressure 30.34 in    
Wind  
Wind Speed 9 mph (NW)    
Max Wind Speed 25 mph    
Max Gust Speed 32 mph    
Visibility 10 miles    
Events      
T = Trace of Precipitation, MM = Missing Value Source: NWS Daily Summary

Daily Weather History Graph

Daily Weather History Graph

Search for Another Location

Airport or City:

Trip Planner

Search our weather history database for the weather conditions in past years. The results will help you decide how hot, cold, wet, or windy it might be!

Date:

Astronomy

Apr. 03, 2013 Rise Set
Actual Time 7:02 AM EDT 7:49 PM EDT
Civil Twilight 6:35 AM EDT 8:16 PM EDT
Nautical Twilight 6:02 AM EDT 8:49 PM EDT
Astronomical Twilight 5:29 AM EDT 9:23 PM EDT
Moon 2:42 AM EDT (4/3) 12:59 PM EDT (4/3)
Length of Visible Light 13h 41m
Length of Day
12h 46m
Last Quarter, 45% of the Moon is Illuminated
Apr 3
Last Quarter
Apr 10
New
Apr 18
First Quarter
Apr 25
Full
May 2
Last Quarter

Hourly Weather History & Observations

Time (EDT) Temp. Windchill Dew Point Humidity Pressure Visibility Wind Dir Wind Speed Gust Speed Precip Events Conditions
12:53 AM 30.9 °F 24.3 °F 12.0 °F 46% 30.22 in 10.0 mi WSW 6.9 mph - N/A   Mostly Cloudy
1:53 AM 30.9 °F 22.8 °F 12.9 °F 47% 30.22 in 10.0 mi West 9.2 mph - N/A   Clear
2:53 AM 28.9 °F 21.9 °F 14.0 °F 54% 30.23 in 10.0 mi West 6.9 mph - N/A   Clear
3:53 AM 28.9 °F 21.9 °F 14.0 °F 54% 30.24 in 10.0 mi WNW 6.9 mph - N/A   Clear
4:53 AM 27.0 °F 20.5 °F 14.0 °F 58% 30.25 in 10.0 mi West 5.8 mph - N/A   Clear
5:53 AM 27.0 °F 20.5 °F 14.0 °F 58% 30.27 in 10.0 mi WNW 5.8 mph - N/A   Clear
6:53 AM 26.1 °F 18.4 °F 14.0 °F 60% 30.29 in 10.0 mi WNW 6.9 mph - N/A   Clear
7:53 AM 25.0 °F 20.7 °F 14.0 °F 63% 30.32 in 10.0 mi WNW 3.5 mph - N/A   Clear
8:53 AM 28.9 °F 21.1 °F 16.0 °F 58% 30.32 in 10.0 mi NNW 8.1 mph - N/A   Clear
9:53 AM 32.0 °F 24.8 °F 14.0 °F 48% 30.34 in 10.0 mi NW 8.1 mph - N/A   Clear
10:53 AM 34.0 °F 28.0 °F 3.9 °F 28% 30.37 in 10.0 mi Variable 6.9 mph - N/A   Clear
11:53 AM 37.0 °F 30.4 °F 3.9 °F 25% 30.37 in 10.0 mi WNW 9.2 mph 18.4 mph N/A   Clear
12:53 PM 39.0 °F 31.8 °F 7.0 °F 27% 30.36 in 10.0 mi West 11.5 mph 19.6 mph N/A   Scattered Clouds
1:53 PM 41.0 °F 32.2 °F 9.0 °F 27% 30.35 in 10.0 mi West 18.4 mph 25.3 mph N/A   Mostly Cloudy
2:53 PM 41.0 °F 32.8 °F 10.0 °F 28% 30.35 in 10.0 mi NW 16.1 mph 29.9 mph N/A   Mostly Cloudy
3:53 PM 41.0 °F 32.8 °F 10.9 °F 29% 30.36 in 10.0 mi West 16.1 mph 29.9 mph N/A   Mostly Cloudy
4:53 PM 41.0 °F 34.7 °F 8.1 °F 26% 30.38 in 10.0 mi WNW 10.4 mph 28.8 mph N/A   Clear
5:53 PM 39.0 °F 31.4 °F 7.0 °F 27% 30.40 in 10.0 mi NW 12.7 mph - N/A   Clear
6:53 PM 36.0 °F 27.5 °F 5.0 °F 27% 30.43 in 10.0 mi NNW 12.7 mph 18.4 mph N/A   Clear
7:53 PM 33.1 °F 25.5 °F 6.1 °F 32% 30.43 in 10.0 mi NNW 9.2 mph - N/A   Clear
8:53 PM 30.9 °F 25.2 °F 7.0 °F 37% 30.43 in 10.0 mi North 5.8 mph - N/A   Clear
9:53 PM 30.0 °F 24.1 °F 8.1 °F 40% 30.41 in 10.0 mi NE 5.8 mph - N/A   Clear
10:53 PM 30.0 °F 25.2 °F 7.0 °F 38% 30.41 in 10.0 mi ENE 4.6 mph - N/A   Clear
11:53 PM 27.0 °F 20.5 °F 8.1 °F 45% 30.41 in 10.0 mi ESE 5.8 mph - N/A   Clear